Weather History for Scilly, Saint Mary'S, United Kingdom

Change the Weather History Date:

Friday, February 22, 2013

  Actual Average Record
Temperature  
Mean Temperature 38 °F -  
Max Temperature 40 °F 48 °F - ()
Min Temperature 35 °F 46 °F - ()
Degree Days  
Heating Degree Days 27    
Moisture  
Dew Point 30 °F    
Average Humidity 70    
Maximum Humidity 81    
Minimum Humidity 50    
Precipitation  
Precipitation 0.00 in - - ()
Sea Level Pressure  
Sea Level Pressure 30.03 in    
Wind  
Wind Speed 23 mph ()    
Max Wind Speed 31 mph    
Max Gust Speed 36 mph    
Visibility 8.4 miles    
Events Rain    
T = Trace of Precipitation, MM = Missing Value Source: Averaged Metar Reports

Daily Weather History Graph

Daily Weather History Graph

Search for Another Location

Airport:

Trip Planner

Search our weather history database for the weather conditions in past years. The results will help you decide how hot, cold, wet, or windy it might be!

Date:

Astronomy

Feb. 22, 2013 Rise Set
Actual Time 7:22 AM GMT 5:55 PM GMT
Civil Twilight 6:49 AM GMT 6:28 PM GMT
Nautical Twilight 6:12 AM GMT 7:06 PM GMT
Astronomical Twilight 5:34 AM GMT 7:43 PM GMT
Moon 2:41 PM GMT (2/22) 5:11 AM GMT (2/22)
Length of Visible Light 11h 39m
Length of Day
10h 33m
Waxing Gibbous, 89% of the Moon is Illuminated
Feb 22
Waxing Gibbous
Feb 25
Full
Mar 4
Last Quarter
Mar 11
New
Mar 19
First Quarter

Hourly Weather History & Observations

Time (GMT) Temp. Windchill Dew Point Humidity Pressure Visibility Wind Dir Wind Speed Gust Speed Precip Events Conditions
5:50 AM 41 °F - 29 °F 50% 30.00 in 14 mi East 31.1 mph - -   Mostly Cloudy
8:50 AM 39 °F - 32 °F 68% 30.02 in 12 mi East 26.5 mph - - Rain Light Rain Showers
8:50 AM 39.2 °F 28.0 °F 32.0 °F 75% 30.01 in 6.2 mi ENE 26.5 mph - N/A   Mostly Cloudy
9:20 AM 39.2 °F 28.3 °F 32.0 °F 75% 30.01 in 6.2 mi ENE 25.3 mph - N/A   Mostly Cloudy
9:50 AM 37.4 °F 25.4 °F 32.0 °F 81% 29.86 in 6.2 mi ENE 27.6 mph - N/A   Mostly Cloudy
10:20 AM 37.4 °F 25.6 °F 32.0 °F 81% 30.01 in 6.2 mi ENE 26.5 mph - N/A   Mostly Cloudy
10:50 AM 37.4 °F 25.4 °F 32.0 °F 81% 30.01 in 6.2 mi ENE 27.6 mph - N/A   Mostly Cloudy
11:20 AM 39.2 °F 28.0 °F 32.0 °F 75% 30.01 in 6.2 mi ENE 26.5 mph - N/A   Mostly Cloudy
11:50 AM 38 °F - 31 °F 67% 30.05 in 14 mi ENE 27.6 mph - - Rain Rain
11:50 AM 37.4 °F 25.6 °F 32.0 °F 81% 30.04 in 6.2 mi ENE 26.5 mph - N/A   Scattered Clouds
12:20 PM 37.4 °F 25.6 °F 30.2 °F 75% 30.04 in 6.2 mi ENE 26.5 mph - N/A   Mostly Cloudy
1:50 PM 37.4 °F 26.1 °F 30.2 °F 75% 30.01 in 6.2 mi ENE 24.2 mph 35.7 mph N/A   Mostly Cloudy
2:50 PM 38 °F - 30 °F 65% 30.04 in 13 mi ENE 24.2 mph - -   Mostly Cloudy
3:20 PM 39.2 °F 27.8 °F 32.0 °F 75% 30.04 in 6.2 mi East 27.6 mph - N/A   Mostly Cloudy
3:50 PM 37.4 °F 25.4 °F 30.2 °F 75% 30.04 in 6.2 mi ENE 27.6 mph - N/A   Mostly Cloudy
4:20 PM 37.4 °F 26.4 °F 28.4 °F 70% 30.04 in 6.2 mi ENE 23.0 mph - N/A   Mostly Cloudy
4:50 PM 37.4 °F 25.6 °F 28.4 °F 70% 30.04 in 6.2 mi ENE 26.5 mph - N/A   Mostly Cloudy
5:20 PM 37.4 °F 25.9 °F 28.4 °F 70% 30.04 in 6.2 mi ENE 25.3 mph - N/A   Mostly Cloudy
5:50 PM 38 °F - 28 °F 55% 30.07 in 19 mi ENE 25.3 mph - -   Overcast
8:50 PM 36 °F - 25 °F 52% 30.12 in 28 mi ENE 18.4 mph - -   Overcast
11:50 PM 35 °F - 24 °F 52% 30.15 in 28 mi NE 15.0 mph - -   Overcast